Hourly Data Report for October 22, 2019

All times are specified in Local Standard Time (LST). Add 1 hour to adjust for Daylight Saving Time where and when it is observed.

SEPT-ILES
QUEBEC
Current Station Operator: ECCC - MSC

50°13'00.000" N
66°15'00.000" W
52.60 m
7047914
71279
XZV

Download Data

Hourly Data (October 2019)
Hourly Data Report for October 22, 2019
TIME Temp Definition
°C
Dew Point Definition
°C
Rel Hum Definition
%
Wind Dir Definition
10's deg

Wind Spd Definition
km/h
Visibility Definition
km
Stn Press Definition
kPa
Hmdx Definition


Wind Chill Definition


Weather Definition


00:00 0.8 0.2 96 2 9   101.86     LegendNANA
01:00 0.5 -0.8 91 1 9   101.86     LegendNANA
02:00 0.5 -0.6 92 2 11   101.89     LegendNANA
03:00 0.3 -1.0 91 3 10   101.95     LegendNANA
04:00 1.0 -0.5 90 2 11   102.00     LegendNANA
05:00 0.2 -1.1 91 3 8   102.06     LegendNANA
06:00 -0.3 -1.5 92 3 7   102.10   -3 LegendNANA
07:00 0.8 -0.8 89 2 6   102.17     LegendNANA
08:00 3.4 0.7 82 3 7   102.14     LegendNANA
09:00 6.1 0.3 66 8 10   102.13     LegendNANA
10:00 6.6 -0.1 62 10 15   102.14     LegendNANA
11:00 6.4 2.6 77 14 14   102.11     LegendNANA
12:00 7.0 2.9 75 13 11   102.08     LegendNANA
13:00 5.8 1.5 74 13 10   102.04     LegendNANA
14:00 5.8 1.1 72 10 7   102.00     LegendNANA
15:00 5.3 1.2 75 10 8   102.05     LegendNANA
16:00 4.7 1.1 77 10 4   102.07     LegendNANA
17:00 3.8 0.9 81 5 3   102.08     LegendNANA
18:00 3.8 0.8 80 5 9   102.03     LegendNANA
19:00 4.1 1.0 81 6 10   102.06     LegendNANA
20:00 4.3 1.6 82 6 12   102.02     LegendNANA
21:00 4.6 2.0 83 8 14   101.99     LegendNANA
22:00 5.6 2.9 83 10 16   101.92     LegendNANA
23:00 5.8 2.9 82 10 20   101.79     LegendNANA

Notes on Data Quality.

Legend

  • E = Estimated
  • M = Missing
  • NA = Not Available
Date modified: